Location: Karcze
(52.0945°N, 22.4786°E)
Time: 23:41:44
(UTC+00:00)

Transit 4A - Pass Details

Date: 30 July 2021
Orbit: 871 x 974 km, 66.8° (Epoch: 18 September)

Event Time Altitude Azimuth Distance (km) Brightness Sun altitude
Rises 01:48:04 0° 270° (W) 3,475 10.5 -8.1°
Reaches altitude 10° 01:51:02 10° 284° (WNW) 2,530 9.9 -7.8°
Maximum altitude 01:55:45 25° 338° (NNW) 1,708 9.6 -7.2°
Drops below altitude 10° 02:00:29 10° 32° (NNE) 2,532 11.7 -6.7°
Sets 02:03:28 0° 46° (NE) 3,478 13.7 -6.4°
